DW9227 Weather Reports


Display with metric or nautical units.
time (UTC)temp
F
wind
direction
speed
MPH
gust
MPH
rain 1hr
in
rain 24hr
in
rain mn
in
humidity
%
barometer
mb
20260901191601 77 134 0.0 0.0 0.00 0.00 0.00 67 1017.6
20260901190052 77 134 0.0 0.0 0.00 0.00 0.00 65 1017.5
20260901184552 78 134 0.0 0.0 0.00 0.00 0.00 63 1017.2
20260901183051 79 134 0.0 0.0 0.00 0.00 0.00 62 1017.0
20260901181559 80 134 0.0 0.0 0.00 0.00 0.00 61 1016.7
20260901180049 81 134 0.0 0.0 0.00 0.00 0.00 60 1016.6
20260901174550 81 134 0.0 0.0 0.00 0.00 0.00 59 1016.5
20260901173057 82 134 0.0 0.0 0.00 0.00 0.00 57 1016.4
20260901171559 82 134 0.0 1.0 0.00 0.00 0.00 56 1016.2
20260901170047 83 137 0.0 8.0 0.00 0.00 0.00 55 1016.1
20260901164547 83 114 0.0 4.0 0.00 0.00 0.00 54 1016.0
20260901163046 83 116 0.0 7.0 0.00 0.00 0.00 54 1016.0
20260901161601 84 117 0.0 3.0 0.00 0.00 0.00 55 1016.1
20260901160043 84 124 0.0 8.0 0.00 0.00 0.00 55 1016.0
20260901154553 84 110 1.0 5.0 0.00 0.00 0.00 55 1016.1
20260901153050 84 138 0.0 9.0 0.00 0.00 0.00 56 1016.1
20260901151542 84 117 1.0 7.0 0.00 0.00 0.00 55 1016.1
20260901150043 84 130 1.0 10.0 0.00 0.00 0.00 56 1016.1
20260901144546 84 128 2.0 8.0 0.00 0.00 0.00 56 1016.2
20260901143046 85 65 0.0 14.0 0.00 0.00 0.00 56 1016.3
20260901141547 85 121 0.0 9.0 0.00 0.00 0.00 55 1016.3
20260901140038 85 128 2.0 8.0 0.00 0.00 0.00 54 1016.4
20260901134539 86 109 1.0 8.0 0.00 0.00 0.00 52 1016.4
20260901133035 85 131 0.0 9.0 0.00 0.00 0.00 52 1016.4
20260901131536 85 75 0.0 8.0 0.00 0.00 0.00 53 1016.4
20260901130034 85 130 2.0 8.0 0.00 0.00 0.00 53 1016.5
20260901124536 85 100 0.0 10.0 0.00 0.00 0.00 53 1016.5
20260901123032 85 74 1.0 9.0 0.00 0.00 0.00 54 1016.7
20260901121535 85 104 1.0 10.0 0.00 0.00 0.00 52 1016.8
20260901120030 85 130 3.0 10.0 0.00 0.00 0.00 52 1016.9
20260901114527 85 129 1.0 8.0 0.00 0.00 0.00 51 1017.1
20260901113026 85 95 2.0 9.0 0.00 0.00 0.00 48 1017.2
20260901111525 85 140 0.0 5.0 0.00 0.00 0.00 47 1017.4
20260901110024 85 71 0.0 6.0 0.00 0.00 0.00 43 1017.5
20260901104520 84 322 0.0 2.0 0.00 0.00 0.00 39 1017.7
20260901103016 83 311 0.0 0.0 0.00 0.00 0.00 37 1017.9
20260901101512 81 311 0.0 0.0 0.00 0.00 0.00 38 1018.0
20260901100009 79 311 0.0 0.0 0.00 0.00 0.00 38 1018.2
20260901094507 78 311 0.0 5.0 0.00 0.00 0.00 37 1018.3
20260901093006 77 312 0.0 0.0 0.00 0.00 0.00 38 1018.5
20260901091513 76 309 0.0 8.0 0.00 0.00 0.00 41 1018.5
20260901090008 75 281 0.0 11.0 0.00 0.00 0.00 44 1018.6
20260901084505 73 294 0.0 8.0 0.00 0.00 0.00 43 1018.6
20260901083004 72 298 2.0 11.0 0.00 0.00 0.00 45 1018.7
20260901081508 71 284 1.0 10.0 0.00 0.00 0.00 46 1018.6
20260901080002 70 285 3.0 12.0 0.00 0.00 0.00 47 1018.6
20260901074501 70 299 3.0 11.0 0.00 0.00 0.00 47 1018.5
20260901073104 70 325 1.0 10.0 0.00 0.00 0.00 46 1018.6
20260901071600 69 296 1.0 11.0 0.00 0.00 0.00 48 1018.7
20260901070112 68 311 0.0 0.0 0.00 0.00 0.00 49 1018.8
20260901064559 67 301 1.0 8.0 0.00 0.00 0.00 50 1019.0
20260901063058 66 301 1.0 8.0 0.00 0.00 0.00 51 1018.8
20260901061555 66 291 2.0 10.0 0.00 0.00 0.00 51 1018.8
20260901060053 67 312 1.0 6.0 0.00 0.00 0.00 49 1018.6
20260901054550 68 313 0.0 4.0 0.00 0.00 0.00 47 1018.6
20260901053053 68 323 1.0 6.0 0.00 0.00 0.00 46 1018.5
20260901051546 68 310 0.0 7.0 0.00 0.00 0.00 47 1018.2
20260901050051 68 288 0.0 8.0 0.00 0.00 0.00 46 1018.1
20260901044554 70 282 0.0 10.0 0.00 0.00 0.00 43 1017.8
20260901043039 70 296 0.0 8.0 0.00 0.00 0.00 43 1017.8
20260901041539 71 303 1.0 8.0 0.00 0.00 0.00 41 1017.7
20260901040038 72 316 1.0 11.0 0.00 0.00 0.00 40 1017.7
20260901034535 72 300 2.0 9.0 0.00 0.00 0.00 40 1017.6
20260901033049 73 317 3.0 11.0 0.00 0.00 0.00 38 1017.4
20260901031532 73 298 2.0 10.0 0.00 0.00 0.00 38 1017.3
20260901030034 73 323 1.0 6.0 0.00 0.00 0.00 39 1017.3
20260901024528 73 312 1.0 10.0 0.00 0.00 0.00 38 1017.3
20260901023025 73 306 1.0 9.0 0.00 0.00 0.00 38 1017.3
20260901021523 74 307 1.0 11.0 0.00 0.00 0.00 38 1017.3
20260901020021 74 309 1.0 6.0 0.00 0.00 0.00 37 1017.3
20260901014519 75 340 3.0 10.0 0.00 0.00 0.00 37 1017.3
20260901013019 75 307 0.0 6.0 0.00 0.00 0.00 37 1017.3
20260901011517 75 305 1.0 7.0 0.00 0.00 0.00 36 1017.4
20260901010018 75 302 1.0 6.0 0.00 0.00 0.00 36 1017.2
20260901004513 75 310 2.0 11.0 0.00 0.00 0.00 35 1017.2
20260901003024 76 288 0.0 8.0 0.00 0.00 0.00 35 1017.2
20260901001511 76 288 3.0 10.0 0.00 0.00 0.00 34 1017.1
20260901000027 76 311 3.0 13.0 0.00 0.00 0.00 34 1017.1
20260831234507 77 295 0.0 9.0 0.00 0.00 0.00 33 1017.1
20260831233005 77 294 0.0 8.0 0.00 0.00 0.00 33 1017.0
20260831231504 77 298 0.0 10.0 0.00 0.00 0.00 32 1016.8
20260831230006 77 285 2.0 8.0 0.00 0.00 0.00 32 1016.7
20260831224601 77 293 0.0 7.0 0.00 0.00 0.00 32 1016.6
20260831223101 78 317 3.0 13.0 0.00 0.00 0.00 31 1016.5
20260831221605 78 310 6.0 12.0 0.00 0.00 0.00 31 1016.4
20260831220053 78 305 2.0 10.0 0.00 0.00 0.00 30 1016.3
20260831214601 78 296 5.0 11.0 0.00 0.00 0.00 30 1016.3
20260831213052 79 312 2.0 10.0 0.00 0.00 0.00 29 1016.1
20260831211552 79 318 4.0 10.0 0.00 0.00 0.00 29 1016.0
20260831210052 79 314 3.0 9.0 0.00 0.00 0.00 28 1015.8
20260831204550 79 306 6.0 11.0 0.00 0.00 0.00 28 1015.6
20260831203059 80 320 4.0 11.0 0.00 0.00 0.00 28 1015.3
20260831201553 80 316 4.0 12.0 0.00 0.00 0.00 29 1015.1
20260831200052 79 312 2.0 8.0 0.00 0.00 0.00 28 1014.9
20260831194558 73 90 0.0 0.0 0.00 0.00 0.00 49 1014.7
20260831193045 74 90 0.0 0.0 0.00 0.00 0.00 49 1014.5